This is the latest recevied weather packets stored in our database for station/object W9WRP. If no packets are shown the sender has not sent any weather packets the latest 10 day(s).
| Time | Temp. | Humidity | Pressure | Rain* | Wind** | Luminosity | Snow |
|---|---|---|---|---|---|---|---|
| 1787678765 | 41.67° C | 17% | 1016.8 hPa | 0 mm | - | 564 W/m² | - |
| 1787678465 | 41.11° C | 18% | 1017.2 hPa | 0 mm | - | 552 W/m² | - |
| 1787678160 | 40.56° C | 18% | 1016.7 hPa | 0 mm | - | 516 W/m² | - |
| 1787677855 | 40.56° C | 18% | 1017 hPa | 0 mm | - | 526 W/m² | - |
| 1787677555 | 40.56° C | 19% | 1016.8 hPa | 0 mm | - | 210 W/m² | - |
| 1787677249 | 40.56° C | 19% | 1016.8 hPa | 0 mm | - | 380 W/m² | - |
| 1787676948 | 40° C | 20% | 1016.9 hPa | 0 mm | - | 229 W/m² | - |
| 1787676643 | 40° C | 19% | 1016.8 hPa | 0 mm | - | 213 W/m² | - |
| 1787676340 | 40° C | 19% | 1017 hPa | 0 mm | - | 276 W/m² | - |
| 1787676036 | 39.44° C | 19% | 1016.9 hPa | 0 mm | - | 133 W/m² | - |
| 1787675732 | 38.89° C | 20% | 1016.9 hPa | 0 mm | - | 124 W/m² | - |
| 1787675427 | 39.44° C | 20% | 1017 hPa | 0 mm | - | 68 W/m² | - |
| 1787675125 | 38.89° C | 20% | 1017 hPa | 0 mm | - | 87 W/m² | - |
| 1787674820 | 38.89° C | 20% | 1017 hPa | 0 mm | - | 251 W/m² | - |
| 1787674515 | 38.89° C | 20% | 1016.9 hPa | 0 mm | - | 92 W/m² | - |
| 1787674211 | 38.33° C | 21% | 1017 hPa | 0 mm | - | 120 W/m² | - |
| 1787673909 | 37.78° C | 21% | 1017 hPa | 0 mm | - | 167 W/m² | - |
| 1787673606 | 37.78° C | 21% | 1016.8 hPa | 0 mm | - | 195 W/m² | - |
| 1787673305 | 37.78° C | 21% | 1016.9 hPa | 0 mm | - | 113 W/m² | - |
| 1787673005 | 37.22° C | 22% | 1016.7 hPa | 0 mm | - | 68 W/m² | - |
| 1787672700 | 37.22° C | 22% | 1017 hPa | 0 mm | - | 207 W/m² | - |
| 1787672399 | 36.67° C | 23% | 1016.7 hPa | 0 mm | - | 166 W/m² | - |
| 1787672094 | 36.67° C | 23% | 1016.8 hPa | 0 mm | - | 95 W/m² | - |
| 1787671794 | 36.11° C | 23% | 1016.8 hPa | 0 mm | - | 87 W/m² | - |
| 1787671489 | 36.11° C | 23% | 1016.8 hPa | 0 mm | - | 58 W/m² | - |
* Rain latest hour (hover to see other rain measurements)
** Current wind speed in m/s (hover to see current wind gust speed)